Powrót do katalogu

SL-16 DEB

AktywnyPO
NORAD 43369·DEBRIS·🇷🇺 Russia

Wystrzelony Dec 10, 2001 z Baikonur Cosmodrome

Loading…

Następne Przeloty (najbliższe 24 godziny)

TLE

Starzejące sięSource: Space-Track

Epoka: Sep 7, 2026, 13:22 UTC

1 43369U 01056N   26250.55701566  .00003186  00000-0  10979-2 0  9993
2 43369  99.2793 162.3674 0072406  75.9390  48.8313 14.35203837642866

Śledź SL-16 DEB w czasie rzeczywistym z AllMySat

Download on the App Store